GW7376 Weather Reports


time (UTC)temp
F
wind
direction
speed
knots
gust
knots
rain 1hr
in
rain 24hr
in
rain mn
in
humidity
%
barometer
mb
20260508001736 68 50 0.0 0.9 0.00 0.00 0.00 67 1000.4
20260508001152 68 41 0.0 0.9 0.00 0.00 0.00 67 1000.1
20260508000637 68 228 0.0 0.0 0.00 0.00 0.00 66 999.9
20260508000138 68 306 0.0 0.9 0.00 0.00 0.00 67 999.9
20260507235539 68 135 0.0 0.9 0.00 0.00 0.00 66 1000.0
20260507235035 68 124 0.9 1.7 0.00 0.00 0.00 64 1000.3
20260507234436 69 321 0.0 0.9 0.00 0.00 0.00 64 1000.5
20260507233935 69 22 0.0 1.7 0.00 0.00 0.00 63 1000.1
20260507233337 69 74 0.0 1.7 0.00 0.00 0.00 64 1000.6
20260507232737 69 180 0.9 0.9 0.00 0.00 0.00 64 1000.4
20260507232137 70 180 0.0 0.9 0.00 0.00 0.00 63 1000.4
20260507224647 71 322 1.7 1.7 0.00 0.00 0.00 63 1000.0
20260507224038 71 284 0.0 1.7 0.00 0.00 0.00 61 999.9
20260507223439 71 53 0.0 1.7 0.00 0.00 0.00 62 1000.0
20260507222937 71 193 0.0 1.7 0.00 0.00 0.00 63 999.8
20260507222355 71 3 0.0 1.7 0.00 0.00 0.00 61 999.8
20260507221847 71 104 0.0 1.7 0.00 0.00 0.00 61 1000.3
20260507221237 71 113 0.9 0.9 0.00 0.00 0.00 60 1000.4
20260507220638 71 251 0.9 2.6 0.00 0.00 0.00 60 1000.3
20260507220037 72 116 0.0 1.7 0.00 0.00 0.00 61 1000.0
20260507215447 72 89 0.0 2.6 0.00 0.00 0.00 62 1000.4
20260507214936 72 103 0.0 0.9 0.00 0.00 0.00 61 1000.4
20260507214343 72 135 0.0 1.7 0.00 0.00 0.00 62 1000.4
20260507213848 72 256 0.0 0.9 0.00 0.00 0.00 60 1000.3
20260507213239 73 135 0.0 0.9 0.00 0.00 0.00 60 1000.2
20260507212736 73 354 0.0 2.6 0.00 0.00 0.00 59 1000.3
20260507212137 73 307 0.9 1.7 0.00 0.00 0.00 59 1000.1
20260507211639 73 137 0.9 1.7 0.00 0.00 0.00 59 1000.2
20260507211137 74 60 0.0 1.7 0.00 0.00 0.00 56 1000.1
20260507210540 74 210 1.7 1.7 0.00 0.00 0.00 57 1000.2
20260507205940 73 343 0.0 0.9 0.00 0.00 0.00 58 1000.5
20260507205436 74 351 0.0 2.6 0.00 0.00 0.00 57 1000.6
20260507204936 74 203 1.7 2.6 0.00 0.00 0.00 56 1000.8
20260507204336 75 321 1.7 1.7 0.00 0.00 0.00 54 1000.9
20260507203743 74 217 2.6 2.6 0.00 0.00 0.00 55 1000.6
20260507203247 74 84 0.9 1.7 0.00 0.00 0.00 57 1001.0
20260507202638 73 110 0.0 1.7 0.00 0.00 0.00 57 1000.6
20260507202139 73 74 0.9 2.6 0.00 0.00 0.00 59 1000.7
20260507201639 72 178 0.9 2.6 0.00 0.00 0.00 59 1001.0
20260507201039 72 343 0.9 2.6 0.00 0.00 0.00 58 1001.0
20260507200439 72 241 1.7 1.7 0.00 0.00 0.00 60 1000.8
20260507195936 72 293 1.7 2.6 0.00 0.00 0.00 59 1001.2
20260507195335 72 317 1.7 1.7 0.00 0.00 0.00 58 1001.2
20260507194738 72 9 1.7 1.7 0.00 0.00 0.00 59 1001.0
20260507194141 73 26 0.0 2.6 0.00 0.00 0.00 57 1001.3
20260507193636 74 11 1.7 3.5 0.00 0.00 0.00 56 1001.4
20260507193049 74 325 1.7 1.7 0.00 0.00 0.00 56 1001.6
20260507192537 73 62 1.7 2.6 0.00 0.00 0.00 58 1001.5
20260507192038 73 119 0.0 0.9 0.00 0.00 0.00 59 1001.4
20260507191439 73 110 2.6 3.5 0.00 0.00 0.00 59 1001.4
20260507190857 73 70 0.9 1.7 0.00 0.00 0.00 58 1001.5
20260507190336 72 334 0.9 2.6 0.00 0.00 0.00 57 1001.7
20260507185847 73 22 0.0 1.7 0.00 0.00 0.00 57 1002.2
20260507185244 73 268 1.7 2.6 0.00 0.00 0.00 59 1002.2
20260507184737 72 24 0.0 2.6 0.00 0.00 0.00 57 1002.5
20260507184143 72 294 1.7 2.6 0.00 0.00 0.00 60 1002.2
20260507183651 72 319 0.0 2.6 0.00 0.00 0.00 60 1002.0
20260507183137 71 62 1.7 1.7 0.00 0.00 0.00 60 1001.8
20260507182636 72 61 0.9 1.7 0.00 0.00 0.00 60 1002.0
20260507182145 71 157 1.7 2.6 0.00 0.00 0.00 60 1001.5
20260507181635 71 128 1.7 3.5 0.00 0.00 0.00 61 1001.8
20260507181037 71 17 0.9 1.7 0.00 0.00 0.00 61 1002.1
20260507180537 70 354 1.7 3.5 0.00 0.00 0.00 63 1002.3
20260507180036 69 173 0.0 2.6 0.00 0.00 0.00 64 1002.4
20260507175439 69 265 0.0 2.6 0.00 0.00 0.00 62 1002.3
20260507174936 70 339 1.7 2.6 0.00 0.00 0.00 62 1002.6
20260507174336 70 24 2.6 3.5 0.00 0.00 0.00 65 1002.6
20260507173846 69 243 0.9 1.7 0.00 0.00 0.00 64 1002.3
20260507173246 67 306 0.9 1.7 0.00 0.00 0.00 67 1002.4
20260507172748 67 301 0.9 4.3 0.00 0.00 0.00 66 1002.6
20260507172145 67 301 1.7 1.7 0.00 0.00 0.00 70 1002.7
20260507171537 67 14 5.2 5.2 0.00 0.00 0.00 66 1002.8
20260507171036 67 46 0.9 3.5 0.00 0.00 0.00 68 1002.9
20260507170435 67 98 2.6 3.5 0.00 0.00 0.00 68 1003.0
20260507165835 67 39 1.7 2.6 0.00 0.00 0.00 68 1002.6
20260507165248 66 88 0.0 3.5 0.00 0.00 0.00 70 1002.7
20260507164637 66 152 0.9 1.7 0.00 0.00 0.00 70 1002.7
20260507164035 66 144 0.9 4.3 0.00 0.00 0.00 68 1003.0
20260507163436 66 350 0.9 2.6 0.00 0.00 0.00 70 1002.8
20260507162836 66 348 0.9 1.7 0.00 0.00 0.00 71 1003.0
20260507162336 66 30 2.6 2.6 0.00 0.00 0.00 69 1003.1
20260507161736 65 30 1.7 2.6 0.00 0.00 0.00 71 1002.7
20260507161142 64 217 1.7 2.6 0.00 0.00 0.00 73 1002.1
20260507160638 64 56 1.7 2.6 0.00 0.00 0.00 74 1001.7
20260507160136 63 133 1.7 2.6 0.00 0.00 0.00 76 1001.6
20260507155636 62 137 0.0 2.6 0.00 0.00 0.00 77 1001.6
20260507155036 62 44 1.7 1.7 0.00 0.00 0.00 78 1002.0
20260507154535 62 4 0.9 3.5 0.00 0.00 0.00 78 1001.7
20260507153936 62 36 1.7 1.7 0.00 0.00 0.00 78 1002.4
20260507153435 62 33 1.7 1.7 0.00 0.00 0.00 77 1002.7
20260507152836 62 139 1.7 2.6 0.00 0.00 0.00 78 1003.0
20260507152238 61 154 0.9 2.6 0.00 0.00 0.00 78 1003.1
20260507151736 61 121 0.9 2.6 0.00 0.00 0.00 79 1002.9
20260507151136 60 150 2.6 2.6 0.00 0.00 0.00 80 1002.9
20260507150538 60 113 1.7 2.6 0.00 0.00 0.00 81 1002.9
20260507150036 60 17 1.7 1.7 0.00 0.00 0.00 80 1002.9
20260507145535 60 82 0.9 2.6 0.00 0.00 0.00 81 1002.9
20260507144936 59 141 0.0 1.7 0.00 0.00 0.00 81 1003.2
20260507144435 59 87 1.7 2.6 0.00 0.00 0.00 80 1003.3
20260507143935 59 120 0.9 4.3 0.00 0.00 0.00 81 1003.4
20260507143435 59 23 3.5 3.5 0.00 0.00 0.00 82 1003.2
20260507142836 59 110 1.7 3.5 0.00 0.00 0.00 82 1003.4
20260507142236 58 101 0.9 3.5 0.00 0.00 0.00 83 1002.9
20260507141746 58 23 3.5 4.3 0.00 0.00 0.00 84 1002.9
20260507141136 58 89 0.0 2.6 0.00 0.00 0.00 84 1003.1
20260507140635 58 36 1.7 2.6 0.00 0.00 0.00 84 1002.9
20260507140137 58 102 1.7 2.6 0.00 0.00 0.00 85 1002.9
20260507135535 58 112 0.9 1.7 0.00 0.00 0.00 86 1002.9
20260507135035 58 70 0.9 2.6 0.00 0.00 0.00 86 1003.1
20260507134446 58 26 1.7 2.6 0.00 0.00 0.00 87 1003.0
20260507133936 58 117 1.7 1.7 0.00 0.00 0.00 86 1003.2
20260507133336 58 85 2.6 2.6 0.00 0.00 0.00 85 1003.1
20260507132835 58 52 1.7 2.6 0.00 0.00 0.00 87 1003.1
20260507132337 58 73 0.9 1.7 0.00 0.00 0.00 87 1002.8
20260507131735 58 107 2.6 2.6 0.00 0.00 0.00 87 1002.8
20260507131138 58 55 1.7 2.6 0.00 0.00 0.00 87 1003.1
20260507130635 58 73 0.0 1.7 0.00 0.00 0.00 87 1003.3
20260507130136 58 80 1.7 3.5 0.00 0.00 0.00 87 1003.0
20260507125638 58 8 1.7 2.6 0.00 0.00 0.00 87 1002.8
20260507125037 58 138 0.0 1.7 0.00 0.00 0.00 87 1002.9
20260507124436 58 82 0.9 2.6 0.00 0.00 0.00 87 1003.0
20260507123935 58 79 0.9 1.7 0.00 0.00 0.00 87 1002.9
20260507123336 58 121 0.9 2.6 0.00 0.00 0.00 87 1002.9
20260507122737 58 342 1.7 3.5 0.00 0.00 0.00 86 1002.4
20260507122239 58 336 2.6 2.6 0.00 0.00 0.00 87 1002.5
20260507121736 58 305 0.0 1.7 0.00 0.00 0.00 88 1002.3
20260507121150 58 96 1.7 3.5 0.00 0.00 0.00 88 1002.0
20260507120640 58 104 0.0 2.6 0.00 0.00 0.00 88 1001.7
20260507120149 58 68 1.7 2.6 0.00 0.00 0.00 89 1001.7
20260507115538 59 102 0.9 2.6 0.00 0.00 0.00 90 1001.7
20260507115047 59 36 1.7 2.6 0.00 0.00 0.00 90 1001.7
20260507114537 59 356 1.7 3.5 0.00 0.00 0.00 90 1001.4
20260507113937 59 17 1.7 1.7 0.00 0.00 0.00 90 1001.7
20260507113339 59 86 0.9 1.7 0.00 0.00 0.00 89 1001.8
20260507112837 59 108 0.0 3.5 0.00 0.00 0.00 89 1001.4
20260507112336 59 131 1.7 3.5 0.00 0.00 0.00 89 1001.6
20260507111836 60 279 1.7 3.5 0.00 0.00 0.00 88 1001.7
20260507111338 60 15 1.7 2.6 0.00 0.00 0.00 88 1001.4
20260507110737 60 271 0.0 2.6 0.00 0.00 0.00 88 1001.2
20260507110136 60 37 1.7 2.6 0.00 0.00 0.00 88 1001.4
20260507105538 60 49 1.7 2.6 0.00 0.00 0.00 87 1001.4
20260507104937 60 25 0.0 1.7 0.00 0.00 0.00 87 1001.4
20260507104336 60 26 0.0 2.6 0.00 0.00 0.00 87 1001.1
20260507103737 60 9 0.9 2.6 0.00 0.00 0.00 87 1000.9
20260507103236 60 40 0.0 1.7 0.00 0.00 0.00 87 1001.0
20260507102636 60 96 1.7 3.5 0.00 0.00 0.00 88 1000.1
20260507102038 60 76 0.9 1.7 0.00 0.00 0.00 89 1000.5
20260507101436 60 7 0.0 2.6 0.00 0.00 0.00 89 1000.5
20260507100936 60 46 0.0 2.6 0.00 0.00 0.00 89 1000.7
20260507100338 60 338 1.7 2.6 0.00 0.00 0.00 90 1000.2
20260507095737 60 55 1.7 1.7 0.00 0.00 0.00 90 1000.0
20260507095136 60 48 0.9 1.7 0.00 0.00 0.00 90 999.9
20260507094636 60 62 0.0 1.7 0.00 0.00 0.00 90 999.6
20260507094135 61 62 1.7 1.7 0.00 0.00 0.00 89 999.5
20260507093648 61 351 0.0 2.6 0.00 0.00 0.00 89 999.2
20260507093047 61 81 0.9 1.7 0.00 0.00 0.00 89 999.3
20260507092537 61 130 1.7 2.6 0.00 0.00 0.00 89 999.3
20260507091950 61 69 0.0 1.7 0.00 0.00 0.00 88 999.4
20260507091336 61 16 0.9 1.7 0.00 0.00 0.00 89 999.4
20260507090837 61 139 1.7 1.7 0.00 0.00 0.00 88 999.5
20260507090336 61 185 0.0 2.6 0.00 0.00 0.00 88 999.9
20260507085736 61 222 0.9 2.6 0.00 0.00 0.00 88 999.6
20260507085235 61 120 1.7 1.7 0.00 0.00 0.00 88 999.9
20260507084636 61 176 1.7 2.6 0.00 0.00 0.00 88 1000.2
20260507084037 61 336 0.9 1.7 0.00 0.00 0.00 88 999.7
20260507083535 61 73 0.0 1.7 0.00 0.00 0.00 88 999.8
20260507082936 61 123 0.9 1.7 0.00 0.00 0.00 88 999.4
20260507082336 61 106 2.6 4.3 0.00 0.00 0.00 88 999.0
20260507081736 62 337 1.7 3.5 0.00 0.00 0.00 88 999.3
20260507081136 62 75 0.9 1.7 0.00 0.00 0.00 88 999.2
20260507080636 62 357 0.9 2.6 0.00 0.00 0.00 88 999.7
20260507080135 62 116 1.7 2.6 0.00 0.00 0.00 88 1000.2
20260507075535 62 177 1.7 2.6 0.00 0.00 0.00 88 1000.0
20260507075035 62 200 1.7 3.5 0.00 0.00 0.00 89 999.9
20260507074439 62 45 1.7 2.6 0.00 0.00 0.00 89 1000.4
20260507073835 62 105 1.7 2.6 0.00 0.00 0.00 89 1000.1
20260507073246 62 73 0.9 4.3 0.00 0.00 0.00 90 1000.1
20260507072635 62 104 1.7 2.6 0.00 0.00 0.00 91 999.7
20260507072035 62 159 0.9 3.5 0.00 0.00 0.00 91 1000.1
20260507071536 62 337 1.7 2.6 0.00 0.00 0.00 90 1000.1
20260507070945 62 109 1.7 1.7 0.00 0.00 0.00 90 1000.3
20260507070336 63 5 1.7 3.5 0.00 0.00 0.00 90 1000.7
20260507065735 62 162 1.7 2.6 0.00 0.00 0.00 90 1000.3
20260507065245 63 14 2.6 3.5 0.00 0.00 0.00 89 1000.7
20260507064636 63 48 0.0 1.7 0.00 0.00 0.00 89 1000.5
20260507064135 63 164 0.9 2.6 0.00 0.00 0.00 89 1000.8
20260507063636 63 17 3.5 5.2 0.00 0.00 0.00 89 1000.3
20260507063135 63 23 2.6 3.5 0.00 0.00 0.00 89 1000.3
20260507062537 63 120 3.5 3.5 0.00 0.00 0.00 89 999.9
20260507061936 63 80 1.7 3.5 0.00 0.00 0.00 89 999.6
20260507061445 63 86 1.7 2.6 0.00 0.00 0.00 88 999.7
20260507060935 63 353 2.6 3.5 0.00 0.00 0.00 88 1000.1
20260507060336 63 43 1.7 2.6 0.00 0.00 0.00 88 1000.6
20260507055835 63 42 1.7 2.6 0.00 0.00 0.00 88 1000.4
20260507055235 63 1 0.9 3.5 0.00 0.00 0.00 87 1000.5
20260507054635 63 67 0.0 1.7 0.00 0.00 0.00 87 1000.2
20260507054138 63 51 0.0 1.7 0.00 0.00 0.00 87 1000.1
20260507053636 63 349 2.6 3.5 0.00 0.00 0.00 87 1000.3
20260507053036 64 350 0.9 2.6 0.00 0.00 0.00 87 1000.2
20260507052436 63 172 1.7 2.6 0.00 0.00 0.00 87 999.9
20260507051837 63 21 2.6 3.5 0.00 0.00 0.00 87 999.8
20260507051240 63 183 0.9 2.6 0.00 0.00 0.00 86 999.8
20260507050639 64 344 0.9 5.2 0.00 0.00 0.00 86 999.8
20260507050135 64 83 2.6 3.5 0.00 0.00 0.00 86 999.7
20260507045646 64 250 1.7 2.6 0.00 0.00 0.00 86 999.8
20260507045135 64 66 0.0 1.7 0.00 0.00 0.00 86 1000.0
20260507044636 64 17 0.0 4.3 0.00 0.00 0.00 85 1000.0
20260507044135 64 56 1.7 3.5 0.00 0.00 0.00 85 1000.1
20260507043546 64 75 0.0 1.7 0.00 0.00 0.00 85 999.9
20260507042936 64 48 1.7 1.7 0.00 0.00 0.00 85 1000.0
20260507042436 64 3 0.9 1.7 0.00 0.00 0.00 84 1000.0
20260507041835 64 111 0.9 0.9 0.00 0.00 0.00 85 999.9
20260507041346 64 320 1.7 1.7 0.00 0.00 0.00 85 999.7
20260507040836 64 25 0.0 2.6 0.00 0.00 0.00 85 999.7
20260507040335 64 308 1.7 1.7 0.00 0.00 0.00 84 999.4
20260507035735 64 258 0.0 1.7 0.00 0.00 0.00 85 999.8
20260507035145 64 73 0.0 1.7 0.00 0.00 0.00 84 999.9
20260507034645 64 131 1.7 1.7 0.00 0.00 0.00 84 1000.0
20260507034036 64 129 0.0 0.9 0.00 0.00 0.00 84 999.9
20260507033535 64 54 1.7 1.7 0.00 0.00 0.00 84 999.6
20260507032935 64 242 1.7 2.6 0.00 0.00 0.00 84 999.2
20260507032435 64 62 1.7 3.5 0.00 0.00 0.00 84 999.3
20260507031836 64 104 0.9 1.7 0.00 0.00 0.00 83 999.3
20260507031336 64 162 0.0 1.7 0.00 0.00 0.00 84 999.4
20260507030837 64 70 0.9 3.5 0.00 0.00 0.00 83 999.0
20260507030246 64 15 0.9 1.7 0.00 0.00 0.00 84 998.8
20260507025636 64 31 1.7 1.7 0.00 0.00 0.00 83 998.8
20260507025136 64 51 0.9 2.6 0.00 0.00 0.00 83 998.7
20260507024536 64 108 0.0 1.7 0.00 0.00 0.00 83 998.8
20260507023936 64 76 1.7 2.6 0.00 0.00 0.00 83 998.7
20260507023436 65 37 1.7 2.6 0.00 0.00 0.00 83 998.4
20260507022836 65 310 0.0 2.6 0.00 0.00 0.00 83 998.4
20260507022237 65 78 1.7 3.5 0.00 0.00 0.00 83 998.2
20260507021639 65 42 0.0 2.6 0.00 0.00 0.00 82 998.3
20260507021036 65 22 1.7 1.7 0.00 0.00 0.00 82 998.3
20260507020436 65 34 1.7 2.6 0.00 0.00 0.00 82 998.2
20260507015936 65 25 0.0 0.9 0.00 0.00 0.00 82 998.3
20260507015336 65 50 0.9 1.7 0.00 0.00 0.00 81 997.8
20260507014736 66 357 1.7 1.7 0.00 0.00 0.00 81 997.7
20260507014236 66 46 2.6 2.6 0.00 0.00 0.00 80 997.3
20260507013747 66 224 0.0 0.9 0.00 0.00 0.00 81 997.6
20260507013136 67 48 0.0 3.5 0.00 0.00 0.00 81 997.4
20260507012636 67 47 1.7 3.5 0.00 0.00 0.00 80 997.0
20260507012038 67 26 0.0 1.7 0.00 0.00 0.00 81 997.0
20260507011536 67 129 0.0 2.6 0.00 0.00 0.00 80 997.2
20260507010536 68 138 0.9 1.7 0.00 0.00 0.00 80 997.0
20260507010037 68 6 0.9 2.6 0.00 0.00 0.00 80 996.9
20260507005435 68 27 2.6 2.6 0.00 0.00 0.00 80 996.9
20260507004935 68 17 0.0 1.7 0.00 0.00 0.00 79 996.8
20260507004338 69 12 0.9 3.5 0.00 0.00 0.00 79 996.9